Flag for Canada Weather past 2 weeks in Lloydminster, Alberta, Canada

Now
63 °F

Passing clouds.


Feels Like: 63 °F
Forecast: 57 / 79 °F
Wind: 7 mph from West

Location: Lloydminister

Current Time: Aug 28, 2015 at 3:45:09 AM

Latest Report: Aug 28, 2015 at 3:00 AM


Visibility: 8 mi

Pressure: 29.81 "Hg (27.62 "Hg at 648m altitude)

Humidity: 77%

Dew point: 55 °F

Location of LloydminsterLocation

Historic Weather in Lloydminster — Graph

°F

Lloydminster temperature yesterday

Maximum temperature yesterday: 75 °F (at 2:00 PM)
Minimum temperature yesterday: 48 °F (at 6:00 AM)
Average temperature yesterday: 63 °F

Past Weeks' High & Low Weather Summary

 TemperatureHumidityPressure
High90 °F (Aug 13, 3:00 PM)100% (Aug 25, 6:59 AM)30.22 "Hg (Aug 25, 6:59 AM)
Low41 °F (Aug 22, 6:00 AM)27% (Aug 13, 4:00 PM)29.63 "Hg (Aug 19, 8:00 PM)
Average58 °F71%29.99 "Hg
* Reported Aug 13 2:00 AM — Aug 28 2:00 AM, Lloydminster, Weather by CustomWeather, © 2015

Note: Actual official high and low records may vary slightly from our data, if they occured in-between our weather recording intervals... More about our weather records

Advertising

Lloydminster weather history for previous 24 hours

 ConditionsComfort  
Time TempWeatherWind HumidityBarometerVisibility
2:00 AM
Fri, Aug 28
64 °FPassing clouds.9 mph73%29.78 "Hg8 mi
1:00 AM66 °FOvercast.12 mph73%29.81 "Hg9 mi
12:00 AM64 °FOvercast.13 mph73%29.80 "Hg8 mi
11:00 PM
Thu, Aug 27
64 °FOvercast.10 mph73%29.81 "Hg8 mi
10:00 PM64 °FOvercast.8 mph78%29.81 "Hg8 mi
9:00 PM66 °FPartly sunny.7 mph73%29.83 "Hg8 mi
8:00 PM66 °FPartly sunny.5 mph68%29.83 "Hg8 mi
7:00 PM73 °FPartly sunny.7 mph57%29.83 "Hg8 mi
6:00 PM75 °FScattered clouds.9 mph50%29.83 "Hg9 mi
5:00 PM75 °FScattered clouds.3 mph47%29.84 "Hg15 mi
4:00 PM75 °FPartly sunny.3 mph47%29.86 "Hg10 mi
3:00 PM73 °FPartly sunny.2 mph53%29.88 "Hg10 mi
2:00 PM75 °FPartly sunny.7 mph47%29.89 "Hg10 mi
1:00 PM73 °FPartly sunny.6 mph53%29.91 "Hg15 mi
12:00 PM70 °FPartly sunny.No wind57%29.93 "Hg15 mi
11:00 AM66 °FBroken clouds.No wind68%29.94 "Hg15 mi
10:00 AM63 °FBroken clouds.3 mph77%29.95 "Hg15 mi
9:00 AM57 °FBroken clouds.No wind88%29.97 "Hg15 mi
8:00 AM52 °FPartly sunny.3 mph94%29.98 "Hg15 mi
7:00 AM52 °FPartly cloudy.6 mph88%29.99 "Hg15 mi
6:00 AM48 °FClear.5 mph94%29.99 "Hg9 mi
5:00 AM52 °FClear.2 mph88%30.00 "Hg9 mi
4:00 AM52 °FPassing clouds.2 mph88%30.01 "Hg9 mi
3:00 AM55 °FClear.5 mph77%30.00 "Hg9 mi
Weather by CustomWeather, © 2015

See weather overviewHow to use our weather pages